Location: Castellar de la Frontera
(36.3200°N, 5.4500°W)
Time: 22:20:55
(UTC+02:00)

ISS - Pass Details

Date: 20 July 2018
Orbit: 402 x 408 km, 51.6° (Epoch: 17 July)

Event Time Altitude Azimuth Distance (km) Brightness Sun altitude
Rises 22:04:10 0° 204° (SSW) 2,298 -0.1 -5.7°
Reaches altitude 10° 22:06:25 10° 192° (SSW) 1,445 -1.2 -6.1°
Maximum altitude 22:09:13 27° 132° (SE) 798 -2.9 -6.5°
Drops below altitude 10° 22:12:04 10° 71° (ENE) 1,455 -1.4 -7.0°
Sets 22:14:19 0° 59° (ENE) 2,319 -0.3 -7.4°
